Bass Lake Weather Center

Moon Phase Calendar



Bass Lake Water Level
Online Cameras

 


      

Current Conditions in Oakhurst
1/22/2022 7:11:56 AM

33°F
Feels Like 29
Clouds
Humidity
67%
Pressure
30.09"
Wind
4 mph (NW)
Dew Point
24°F
UV Index
0/10 (Low)
Visibility
6 mi

Hourly Forecast

Date & Time Sat, Jan 22
7:00 AM
Sat, Jan 22
8:00 AM
Sat, Jan 22
9:00 AM
Sat, Jan 22
10:00 AM
Sat, Jan 22
11:00 AM
Sat, Jan 22
12:00 PM
Sat, Jan 22
1:00 PM
Sat, Jan 22
2:00 PM
Sat, Jan 22
3:00 PM
Sat, Jan 22
4:00 PM
Sat, Jan 22
5:00 PM
Sat, Jan 22
6:00 PM
Sat, Jan 22
7:00 PM
Sat, Jan 22
8:00 PM
Sat, Jan 22
9:00 PM
Sat, Jan 22
10:00 PM
Sat, Jan 22
11:00 PM
Sun, Jan 23
12:00 AM
Sun, Jan 23
1:00 AM
Sun, Jan 23
2:00 AM
Sun, Jan 23
3:00 AM
Sun, Jan 23
4:00 AM
Sun, Jan 23
5:00 AM
Sun, Jan 23
6:00 AM
Sun, Jan 23
7:00 AM
Sun, Jan 23
8:00 AM
Sun, Jan 23
9:00 AM
Sun, Jan 23
10:00 AM
Sun, Jan 23
11:00 AM
Sun, Jan 23
12:00 PM
Sun, Jan 23
1:00 PM
Sun, Jan 23
2:00 PM
Sun, Jan 23
3:00 PM
Sun, Jan 23
4:00 PM
Sun, Jan 23
5:00 PM
Sun, Jan 23
6:00 PM
Sun, Jan 23
7:00 PM
Sun, Jan 23
8:00 PM
Sun, Jan 23
9:00 PM
Sun, Jan 23
10:00 PM
Sun, Jan 23
11:00 PM
Mon, Jan 24
12:00 AM
Mon, Jan 24
1:00 AM
Mon, Jan 24
2:00 AM
Mon, Jan 24
3:00 AM
Mon, Jan 24
4:00 AM
Mon, Jan 24
5:00 AM
Mon, Jan 24
6:00 AM
Condition
Clouds

Clouds

Clouds

Clouds

Clouds

Clouds

Clouds

Clouds

Clouds

Clouds

Clouds

Clouds

Clouds

Clouds

Clouds

Clouds

Clear

Clear

Clear

Clear

Clear

Clear

Clear

Clear

Clear

Clear

Clear

Clear

Clear

Clear

Clear

Clear

Clear

Clear

Clear

Clear

Clear

Clear

Clear

Clear

Clear

Clear

Clear

Clear

Clear

Clear

Clouds

Clouds
Temperature 33°F33°F37°F42°F47°F53°F53°F53°F51°F48°F42°F39°F37°F36°F36°F36°F36°F36°F36°F36°F36°F36°F36°F36°F36°F38°F46°F51°F53°F54°F54°F54°F53°F51°F44°F42°F42°F41°F40°F40°F40°F40°F40°F40°F39°F39°F39°F39°F
Feels Like 25°F25°F31°F39°F47°F50°F51°F50°F48°F48°F39°F33°F30°F29°F29°F29°F29°F29°F29°F29°F29°F29°F29°F29°F29°F32°F43°F48°F50°F51°F52°F52°F51°F49°F44°F38°F37°F36°F35°F35°F35°F35°F34°F34°F34°F34°F34°F34°F
Cloudiness 100%100%100%99%72%59%59%62%68%73%83%44%29%22%18%15%0%0%0%0%0%0%0%1%1%1%1%1%2%4%5%5%5%5%3%1%1%1%1%1%0%1%1%2%3%4%15%23%
Visibility 6 mi6 mi6 mi6 mi6 mi4 mi3 mi3 mi4 mi6 mi6 mi6 mi6 mi6 mi6 mi6 mi6 mi6 mi6 mi6 mi6 mi6 mi6 mi6 mi6 mi6 mi6 mi6 mi6 mi6 mi6 mi6 mi6 mi6 mi6 mi6 mi6 mi6 mi6 mi6 mi6 mi6 mi6 mi6 mi6 mi6 mi6 mi6 mi
Precipitation 0%0%0%0%0%0%0%0%0%0%0%0%0%0%0%0%0%0%0%0%0%0%0%0%0%0%0%0%0%0%0%0%0%0%0%0%0%0%0%0%0%0%0%0%0%0%0%0%
Humidity 67%64%61%56%51%48%49%51%54%63%68%67%62%57%55%55%55%56%55%55%54%54%54%54%55%55%52%48%45%46%46%48%53%63%74%77%76%74%69%65%64%63%63%63%63%63%63%63%
Dew Point 24°F24°F25°F28°F30°F29°F30°F31°F31°F34°F30°F27°F23°F20°F19°F19°F19°F19°F19°F18°F18°F18°F18°F18°F18°F21°F26°F27°F28°F29°F30°F31°F33°F36°F34°F33°F33°F31°F29°F27°F26°F26°F26°F26°F26°F25°F25°F25°F
Pressure 30.09"30.12"30.12"30.12"30.12"30.09"30.09"30.09"30.09"30.12"30.15"30.24"30.27"30.27"30.3"30.3"30.3"30.33"30.3"30.33"30.33"30.33"30.33"30.33"30.36"30.33"30.27"30.24"30.24"30.24"30.21"30.18"30.18"30.18"30.21"30.24"30.27"30.3"30.3"30.3"30.3"30.3"30.27"30.27"30.24"30.24"30.24"30.21"
Wind Speed 10.2 mph9.8 mph7.4 mph4.9 mph3 mph2 mph1.1 mph0.5 mph1 mph2.5 mph5.7 mph8.4 mph9.2 mph9.7 mph9.8 mph9.5 mph9.4 mph9.4 mph9.2 mph9.2 mph9.3 mph9.4 mph9.3 mph9.1 mph9.3 mph8.4 mph5.1 mph0.9 mph2.1 mph3.1 mph2.5 mph2 mph1.7 mph0.9 mph2.9 mph6 mph6.7 mph7.1 mph7.4 mph7.2 mph7.2 mph7.2 mph7.2 mph7.1 mph7 mph7 mph7.2 mph7.1 mph
Wind
Direction
48°
NE
50°
NE
52°
NE
57°
ENE
58°
ENE
65°
ENE
65°
ENE

N
18°
NNE
50°
NE
37°
NE
44°
NE
44°
NE
46°
NE
46°
NE
47°
NE
45°
NE
46°
NE
45°
NE
44°
NE
43°
NE
44°
NE
43°
NE
44°
NE
45°
NE
45°
NE
48°
NE
30°
NNE
248°
WSW
259°
W
265°
W
262°
W
272°
W
291°
WNW
38°
NE
42°
NE
46°
NE
46°
NE
45°
NE
45°
NE
45°
NE
45°
NE
44°
NE
44°
NE
45°
NE
41°
NE
43°
NE
45°
NE

Daily Forecast

Date High Low Precip. Humidity
Today
Jan 22

Clouds
53 °F
33 °F
0%
48%
Sunday
Jan 23

Clear
54 °F
36 °F
0%
46%
Monday
Jan 24

Clear
55 °F
39 °F
0%
54%
Tuesday
Jan 25

Clouds
56 °F
37 °F
0%
51%
Wednesday
Jan 26

Clear
59 °F
40 °F
0%
36%
Thursday
Jan 27

Clouds
62 °F
43 °F
0%
35%
Friday
Jan 28

Clouds
62 °F
45 °F
0%
35%
Saturday
Jan 29

Clear
62 °F
45 °F
0%
31%
Sunday
Jan 30

Clouds
63 °F
47 °F
0%
36%
Monday
Jan 31

Clouds
60 °F
48 °F
0%
38%
Tuesday
Feb 1

Rain
49 °F
33 °F
100%
91%
Wednesday
Feb 2

Snow
36 °F
30 °F
95%
76%
Thursday
Feb 3

Snow
39 °F
28 °F
99%
82%
Friday
Feb 4

Clouds
46 °F
31 °F
0%
81%
Saturday
Feb 5

Clouds
52 °F
35 °F
0%
77%
Sunday
Feb 6

Clouds
56 °F
40 °F
0%
67%

Temperature 8-14 Day Outlook



Precipitation 8-14 Day Outlook




Quick Links
Bass Lake News
Bass Lake Photos
Bass Lake Videos




About Us
Contact Us
Site Map
Search Site
Advertise With Us
   
Bass-CA.LakesOnline.com
THE BASS LAKE WEBSITE

Copyright 2022, Lakes Online
Privacy    |    Legal